Time,TemperatureF,DewpointF,PressureIn,WindDirection,WindDirectionDegrees,WindSpeedMPH,WindSpeedGustMPH,Humidity,HourlyPrecipIn,Conditions,Clouds,dailyrainin,SoftwareType,DateUTC
2013-03-21 00:00:00,36.5,33.6,29.82,SSE,166,0.0,0.0,89,0.00,,---,0.00,VWS V14.00,2013-03-21 04:00:00,
2013-03-21 00:05:00,36.6,34.0,29.81,SSE,166,0.0,0.0,90,0.00,,---,0.00,VWS V14.00,2013-03-21 04:05:00,
2013-03-21 00:10:00,36.7,34.3,29.81,SSE,166,0.0,0.0,91,0.00,,---,0.00,VWS V14.00,2013-03-21 04:10:00,
2013-03-21 00:15:00,36.6,34.0,29.81,SSE,166,0.0,1.0,90,0.00,,---,0.00,VWS V14.00,2013-03-21 04:15:00,
2013-03-21 00:20:00,36.3,33.7,29.81,SSE,166,0.0,1.0,90,0.00,,---,0.00,VWS V14.00,2013-03-21 04:20:00,
2013-03-21 00:25:00,35.3,32.4,29.81,SSE,166,0.0,2.0,89,0.00,,---,0.00,VWS V14.00,2013-03-21 04:25:00,
2013-03-21 00:30:00,35.0,32.6,29.81,SSE,166,0.0,1.0,91,0.00,,---,0.00,VWS V14.00,2013-03-21 04:30:00,
2013-03-21 00:35:00,35.4,33.0,29.81,SSE,166,0.0,1.0,91,0.00,,---,0.00,VWS V14.00,2013-03-21 04:35:00,
2013-03-21 00:40:00,35.1,32.5,29.80,SSE,166,0.0,1.0,90,0.00,,---,0.00,VWS V14.00,2013-03-21 04:40:00,
2013-03-21 00:45:00,34.7,32.1,29.80,SSE,166,0.0,1.0,90,0.00,,---,0.00,VWS V14.00,2013-03-21 04:45:00,
2013-03-21 00:50:00,34.8,32.5,29.80,SSE,166,0.0,1.0,91,0.00,,---,0.00,VWS V14.00,2013-03-21 04:50:00,
2013-03-21 00:55:00,34.8,32.2,29.79,SSE,166,0.0,1.0,90,0.00,,---,0.00,VWS V14.00,2013-03-21 04:55:00,
2013-03-21 01:00:00,34.6,32.0,29.79,SSE,166,0.0,0.0,90,0.00,,---,0.00,VWS V14.00,2013-03-21 05:00:00,
2013-03-21 01:05:00,34.4,31.8,29.79,SSE,166,0.0,0.0,90,0.00,,---,0.00,VWS V14.00,2013-03-21 05:05:00,
2013-03-21 01:10:00,34.3,32.0,29.78,SSE,166,0.0,0.0,91,0.00,,---,0.00,VWS V14.00,2013-03-21 05:10:00,
2013-03-21 01:15:00,34.4,32.0,29.78,SSE,166,0.0,0.0,91,0.00,,---,0.00,VWS V14.00,2013-03-21 05:15:00,
2013-03-21 01:20:00,34.4,32.0,29.78,SSE,166,0.0,0.0,91,0.00,,---,0.00,VWS V14.00,2013-03-21 05:20:00,
2013-03-21 01:25:00,34.3,32.0,29.77,SSE,166,0.0,0.0,91,0.00,,---,0.00,VWS V14.00,2013-03-21 05:25:00,
2013-03-21 01:30:00,34.3,32.0,29.77,SSE,166,0.0,0.0,91,0.00,,---,0.00,VWS V14.00,2013-03-21 05:30:00,
2013-03-21 01:35:00,34.3,32.0,29.77,SSE,166,0.0,0.0,91,0.00,,---,0.00,VWS V14.00,2013-03-21 05:35:00,
2013-03-21 01:40:00,34.1,31.8,29.77,SSE,166,0.0,0.0,91,0.00,,---,0.00,VWS V14.00,2013-03-21 05:40:00,
2013-03-21 01:45:00,33.9,31.6,29.76,SSE,166,0.0,0.0,91,0.00,,---,0.00,VWS V14.00,2013-03-21 05:45:00,
2013-03-21 01:50:00,33.8,31.5,29.76,SSE,166,0.0,0.0,91,0.00,,---,0.00,VWS V14.00,2013-03-21 05:50:00,
2013-03-21 01:55:00,33.7,31.6,29.75,SSE,166,0.0,0.0,92,0.00,,---,0.00,VWS V14.00,2013-03-21 05:55:00,
2013-03-21 02:00:00,33.5,31.2,29.75,SSE,166,0.0,0.0,91,0.00,,---,0.00,VWS V14.00,2013-03-21 06:00:00,
2013-03-21 02:05:00,33.0,30.7,29.75,SSE,166,0.0,0.0,91,0.00,,---,0.00,VWS V14.00,2013-03-21 06:05:00,
2013-03-21 02:10:00,32.8,30.7,29.75,SSE,166,0.0,0.0,92,0.00,,---,0.00,VWS V14.00,2013-03-21 06:10:00,
2013-03-21 02:15:00,33.0,30.9,29.74,SSE,166,0.0,0.0,92,0.00,,---,0.00,VWS V14.00,2013-03-21 06:15:00,
2013-03-21 02:20:00,32.9,30.8,29.74,SSE,166,0.0,0.0,92,0.00,,---,0.00,VWS V14.00,2013-03-21 06:20:00,
2013-03-21 02:25:00,33.0,30.9,29.74,SSE,166,0.0,0.0,92,0.00,,---,0.00,VWS V14.00,2013-03-21 06:25:00,
2013-03-21 02:30:00,32.8,30.5,29.74,SSE,166,0.0,0.0,91,0.00,,---,0.00,VWS V14.00,2013-03-21 06:30:00,
2013-03-21 02:35:00,32.4,30.1,29.73,SSE,166,0.0,0.0,91,0.00,,---,0.00,VWS V14.00,2013-03-21 06:35:00,
2013-03-21 02:40:00,32.1,29.8,29.73,SSE,166,0.0,0.0,91,0.00,,---,0.00,VWS V14.00,2013-03-21 06:40:00,
2013-03-21 02:45:00,31.7,29.4,29.73,SSE,166,0.0,0.0,91,0.00,,---,0.00,VWS V14.00,2013-03-21 06:45:00,
2013-03-21 02:50:00,31.6,29.5,29.73,SSE,166,0.0,0.0,92,0.00,,---,0.00,VWS V14.00,2013-03-21 06:50:00,
2013-03-21 02:56:00,31.7,29.6,29.73,SSE,166,0.0,0.0,92,0.00,,---,0.00,VWS V14.00,2013-03-21 06:56:00,
2013-03-21 03:01:00,31.7,29.6,29.73,SSE,166,0.0,0.0,92,0.00,,---,0.00,VWS V14.00,2013-03-21 07:01:00,
2013-03-21 03:06:00,31.6,29.5,29.72,SSE,166,0.0,0.0,92,0.00,,---,0.00,VWS V14.00,2013-03-21 07:06:00,
2013-03-21 03:11:00,31.5,29.5,29.72,SSE,166,0.0,0.0,92,0.00,,---,0.00,VWS V14.00,2013-03-21 07:11:00,
2013-03-21 03:16:00,31.8,30.0,29.72,SSE,166,0.0,0.0,93,0.00,,---,0.00,VWS V14.00,2013-03-21 07:16:00,
2013-03-21 03:21:00,31.8,30.0,29.72,SSE,166,0.0,0.0,93,0.00,,---,0.00,VWS V14.00,2013-03-21 07:21:00,
2013-03-21 03:26:00,31.4,29.4,29.72,SSE,166,0.0,0.0,92,0.00,,---,0.00,VWS V14.00,2013-03-21 07:26:00,
2013-03-21 03:31:00,30.8,28.8,29.72,SSE,166,0.0,2.0,92,0.00,,---,0.00,VWS V14.00,2013-03-21 07:31:00,
2013-03-21 03:36:00,30.9,29.1,29.71,SSE,166,0.0,2.0,93,0.00,,---,0.00,VWS V14.00,2013-03-21 07:36:00,
2013-03-21 03:41:00,31.5,30.0,29.72,SSE,166,0.0,2.0,94,0.00,,---,0.00,VWS V14.00,2013-03-21 07:41:00,
2013-03-21 03:46:00,31.8,30.3,29.71,SSE,166,0.0,2.0,94,0.00,,---,0.00,VWS V14.00,2013-03-21 07:46:00,
2013-03-21 03:51:00,31.9,30.4,29.71,SSE,166,0.0,2.0,94,0.00,,---,0.00,VWS V14.00,2013-03-21 07:51:00,
2013-03-21 03:56:00,32.1,30.6,29.71,SSE,166,0.0,2.0,94,0.00,,---,0.00,VWS V14.00,2013-03-21 07:56:00,
2013-03-21 04:01:00,32.2,30.7,29.71,SSE,166,1.0,1.0,94,0.00,,---,0.00,VWS V14.00,2013-03-21 08:01:00,
2013-03-21 04:06:00,31.8,30.0,29.71,SSE,166,0.0,1.0,93,0.00,,---,0.00,VWS V14.00,2013-03-21 08:06:00,
2013-03-21 04:11:00,31.5,29.7,29.70,SSE,166,0.0,1.0,93,0.00,,---,0.00,VWS V14.00,2013-03-21 08:11:00,
2013-03-21 04:16:00,31.3,29.5,29.70,SSE,166,0.0,1.0,93,0.00,,---,0.00,VWS V14.00,2013-03-21 08:16:00,
2013-03-21 04:21:00,31.0,29.2,29.70,SSE,166,0.0,1.0,93,0.00,,---,0.00,VWS V14.00,2013-03-21 08:21:00,
2013-03-21 04:26:00,31.1,29.3,29.70,SSE,166,0.0,1.0,93,0.00,,---,0.00,VWS V14.00,2013-03-21 08:26:00,
2013-03-21 04:31:00,31.5,30.0,29.70,SSE,166,0.0,0.0,94,0.00,,---,0.00,VWS V14.00,2013-03-21 08:31:00,
2013-03-21 04:36:00,32.0,30.5,29.70,SSE,166,0.0,1.0,94,0.00,,---,0.00,VWS V14.00,2013-03-21 08:36:00,
2013-03-21 04:41:00,32.1,30.6,29.70,SSE,166,0.0,1.0,94,0.00,,---,0.00,VWS V14.00,2013-03-21 08:41:00,
2013-03-21 04:46:00,32.0,30.2,29.70,SSE,166,0.0,1.0,93,0.00,,---,0.00,VWS V14.00,2013-03-21 08:46:00,
2013-03-21 04:51:00,31.9,30.1,29.70,SSE,166,0.0,1.0,93,0.00,,---,0.00,VWS V14.00,2013-03-21 08:51:00,
2013-03-21 04:56:00,31.9,29.8,29.70,SSE,166,0.0,1.0,92,0.00,,---,0.00,VWS V14.00,2013-03-21 08:56:00,
2013-03-21 05:01:00,31.8,29.8,29.70,SSE,166,0.0,0.0,92,0.00,,---,0.00,VWS V14.00,2013-03-21 09:01:00,
2013-03-21 05:06:00,31.7,29.6,29.70,SSE,166,0.0,1.0,92,0.00,,---,0.00,VWS V14.00,2013-03-21 09:06:00,
2013-03-21 05:11:00,31.5,29.5,29.70,SSE,166,0.0,1.0,92,0.00,,---,0.00,VWS V14.00,2013-03-21 09:11:00,
2013-03-21 05:16:00,31.0,28.7,29.70,SSE,166,0.0,1.0,91,0.00,,---,0.00,VWS V14.00,2013-03-21 09:16:00,
2013-03-21 05:21:00,30.5,28.2,29.70,SSE,166,0.0,1.0,91,0.00,,---,0.00,VWS V14.00,2013-03-21 09:21:00,
2013-03-21 05:26:00,30.4,28.4,29.71,SSE,166,0.0,1.0,92,0.00,,---,0.00,VWS V14.00,2013-03-21 09:26:00,
2013-03-21 05:31:00,30.5,28.5,29.71,SSE,166,0.0,0.0,92,0.00,,---,0.00,VWS V14.00,2013-03-21 09:31:00,
2013-03-21 05:36:00,30.6,28.8,29.72,SSE,166,0.0,0.0,93,0.00,,---,0.00,VWS V14.00,2013-03-21 09:36:00,
2013-03-21 05:41:00,30.5,28.5,29.72,SSE,166,0.0,1.0,92,0.00,,---,0.00,VWS V14.00,2013-03-21 09:41:00,
2013-03-21 05:46:00,30.8,29.0,29.72,South,169,2.0,3.0,93,0.00,,---,0.00,VWS V14.00,2013-03-21 09:46:00,
2013-03-21 05:51:00,31.6,29.8,29.72,West,273,3.0,4.0,93,0.00,,---,0.00,VWS V14.00,2013-03-21 09:51:00,
2013-03-21 05:56:00,33.5,32.0,29.72,West,279,4.0,4.0,94,0.00,,---,0.00,VWS V14.00,2013-03-21 09:56:00,
2013-03-21 06:01:00,34.3,32.0,29.72,NNW,343,3.0,5.0,91,0.00,,---,0.00,VWS V14.00,2013-03-21 10:01:00,
2013-03-21 06:06:00,33.3,30.7,29.73,NNW,330,4.0,6.0,90,0.00,,---,0.00,VWS V14.00,2013-03-21 10:06:00,
2013-03-21 06:11:00,33.1,30.5,29.73,NW,325,3.0,7.0,90,0.00,,---,0.00,VWS V14.00,2013-03-21 10:11:00,
2013-03-21 06:16:00,32.9,30.3,29.73,NNW,330,3.0,7.0,90,0.00,,---,0.00,VWS V14.00,2013-03-21 10:16:00,
2013-03-21 06:21:00,32.7,30.1,29.73,NNW,330,2.0,7.0,90,0.00,,---,0.00,VWS V14.00,2013-03-21 10:21:00,
2013-03-21 06:26:00,32.6,30.3,29.73,NNW,330,2.0,7.0,91,0.00,,---,0.00,VWS V14.00,2013-03-21 10:26:00,
2013-03-21 06:31:00,32.3,29.7,29.74,NW,325,2.0,3.0,90,0.00,,---,0.00,VWS V14.00,2013-03-21 10:31:00,
2013-03-21 06:36:00,32.3,30.0,29.74,NW,310,1.0,3.0,91,0.00,,---,0.00,VWS V14.00,2013-03-21 10:36:00,
2013-03-21 06:41:00,31.9,29.3,29.74,NW,310,2.0,3.0,90,0.00,,---,0.00,VWS V14.00,2013-03-21 10:41:00,
2013-03-21 06:46:00,32.1,29.8,29.74,WNW,299,3.0,5.0,91,0.00,,---,0.00,VWS V14.00,2013-03-21 10:46:00,
2013-03-21 06:51:00,32.5,30.2,29.74,West,268,3.0,5.0,91,0.00,,---,0.00,VWS V14.00,2013-03-21 10:51:00,
2013-03-21 06:56:00,31.6,28.7,29.73,West,267,4.0,5.0,89,0.00,,---,0.00,VWS V14.00,2013-03-21 10:56:00,
2013-03-21 07:02:00,31.0,28.7,29.73,West,272,3.0,3.0,91,0.00,,---,0.00,VWS V14.00,2013-03-21 11:02:00,
2013-03-21 07:07:00,31.4,29.4,29.73,West,276,3.0,5.0,92,0.00,,---,0.00,VWS V14.00,2013-03-21 11:07:00,
2013-03-21 07:12:00,32.0,29.9,29.74,West,273,5.0,6.0,92,0.00,,---,0.00,VWS V14.00,2013-03-21 11:12:00,
2013-03-21 07:17:00,32.2,29.9,29.73,West,277,3.0,6.0,91,0.00,,---,0.00,VWS V14.00,2013-03-21 11:17:00,
2013-03-21 07:22:00,32.3,30.0,29.74,West,278,4.0,6.0,91,0.00,,---,0.00,VWS V14.00,2013-03-21 11:22:00,
2013-03-21 07:27:00,32.3,30.0,29.73,West,272,4.0,6.0,91,0.00,,---,0.00,VWS V14.00,2013-03-21 11:27:00,
2013-03-21 07:32:00,32.3,30.0,29.74,West,274,3.0,5.0,91,0.00,,---,0.00,VWS V14.00,2013-03-21 11:32:00,
2013-03-21 07:37:00,32.6,30.5,29.74,West,280,6.0,6.0,92,0.00,,---,0.00,VWS V14.00,2013-03-21 11:37:00,
2013-03-21 07:42:00,33.1,31.0,29.74,West,270,6.0,9.0,92,0.00,,---,0.00,VWS V14.00,2013-03-21 11:42:00,
2013-03-21 07:47:00,33.4,31.1,29.74,West,279,9.0,10.0,91,0.00,,---,0.00,VWS V14.00,2013-03-21 11:47:00,
2013-03-21 07:52:00,33.8,31.2,29.74,WNW,285,6.0,10.0,90,0.00,,---,0.00,VWS V14.00,2013-03-21 11:52:00,
2013-03-21 07:57:00,34.2,31.3,29.74,WNW,284,7.0,10.0,89,0.00,,---,0.00,VWS V14.00,2013-03-21 11:57:00,
2013-03-21 08:02:00,34.4,31.5,29.74,WNW,291,7.0,8.0,89,0.00,,---,0.00,VWS V14.00,2013-03-21 12:02:00,
2013-03-21 08:08:00,34.9,31.7,29.74,WNW,284,5.0,9.0,88,0.00,,---,0.00,VWS V14.00,2013-03-21 12:08:00,
2013-03-21 08:13:00,35.3,32.4,29.74,West,274,6.0,9.0,89,0.00,,---,0.00,VWS V14.00,2013-03-21 12:13:00,
2013-03-21 08:18:00,35.7,32.5,29.75,NW,321,8.0,11.0,88,0.00,,---,0.00,VWS V14.00,2013-03-21 12:18:00,
2013-03-21 08:23:00,36.5,32.7,29.75,WNW,292,7.0,13.0,86,0.00,,---,0.00,VWS V14.00,2013-03-21 12:23:00,
2013-03-21 08:28:00,37.1,33.0,29.75,NW,306,7.0,7.0,85,0.00,,---,0.00,VWS V14.00,2013-03-21 12:28:00,
2013-03-21 08:33:00,37.5,33.1,29.75,NW,305,8.0,10.0,84,0.00,,---,0.00,VWS V14.00,2013-03-21 12:33:00,
2013-03-21 08:38:00,37.9,32.9,29.75,WNW,293,7.0,12.0,82,0.00,,---,0.00,VWS V14.00,2013-03-21 12:38:00,
2013-03-21 08:43:00,38.3,33.3,29.75,NW,316,12.0,13.0,82,0.00,,---,0.00,VWS V14.00,2013-03-21 12:43:00,
2013-03-21 08:48:00,38.8,33.5,29.75,WNW,298,5.0,13.0,81,0.00,,---,0.00,VWS V14.00,2013-03-21 12:48:00,
2013-03-21 08:53:00,39.3,33.3,29.75,NW,318,7.0,14.0,79,0.00,,---,0.00,VWS V14.00,2013-03-21 12:53:00,
2013-03-21 08:58:00,39.8,33.5,29.76,West,281,9.0,10.0,78,0.00,,---,0.00,VWS V14.00,2013-03-21 12:58:00,
2013-03-21 09:03:00,40.3,33.3,29.76,NW,320,6.0,12.0,76,0.00,,---,0.00,VWS V14.00,2013-03-21 13:03:00,
2013-03-21 09:08:00,40.7,32.7,29.76,WNW,301,10.0,14.0,73,0.00,,---,0.00,VWS V14.00,2013-03-21 13:08:00,
2013-03-21 09:13:00,41.0,32.0,29.76,WNW,301,11.0,18.0,70,0.00,,---,0.00,VWS V14.00,2013-03-21 13:13:00,
2013-03-21 09:18:00,41.4,32.4,29.76,WNW,284,11.0,18.0,70,0.00,,---,0.00,VWS V14.00,2013-03-21 13:18:00,
2013-03-21 09:23:00,41.7,32.3,29.76,NW,314,11.0,18.0,69,0.00,,---,0.00,VWS V14.00,2013-03-21 13:23:00,
2013-03-21 09:28:00,42.2,32.4,29.76,WNW,286,11.0,11.0,68,0.00,,---,0.00,VWS V14.00,2013-03-21 13:28:00,
2013-03-21 09:33:00,42.9,33.1,29.75,WNW,284,6.0,14.0,68,0.00,,---,0.00,VWS V14.00,2013-03-21 13:33:00,
2013-03-21 09:38:00,43.2,32.2,29.75,NW,325,10.0,16.0,65,0.00,,---,0.00,VWS V14.00,2013-03-21 13:38:00,
2013-03-21 09:43:00,43.4,32.0,29.75,NW,325,15.0,16.0,64,0.00,,---,0.00,VWS V14.00,2013-03-21 13:43:00,
2013-03-21 09:48:00,43.8,32.0,29.76,NW,317,12.0,17.0,63,0.00,,---,0.00,VWS V14.00,2013-03-21 13:48:00,
2013-03-21 09:53:00,44.2,31.6,29.76,NW,318,7.0,17.0,61,0.00,,---,0.00,VWS V14.00,2013-03-21 13:53:00,
2013-03-21 09:58:00,44.6,31.2,29.76,NW,315,9.0,12.0,59,0.00,,---,0.00,VWS V14.00,2013-03-21 13:58:00,
2013-03-21 10:03:00,44.9,31.9,29.75,NW,312,12.0,16.0,60,0.00,,---,0.00,VWS V14.00,2013-03-21 14:03:00,
2013-03-21 10:08:00,44.9,31.0,29.75,NW,325,15.0,17.0,58,0.00,,---,0.00,VWS V14.00,2013-03-21 14:08:00,
2013-03-21 10:13:00,45.1,31.2,29.75,NW,314,9.0,18.0,58,0.00,,---,0.00,VWS V14.00,2013-03-21 14:13:00,
2013-03-21 10:18:00,45.5,31.2,29.75,NNW,343,12.0,20.0,57,0.00,,---,0.00,VWS V14.00,2013-03-21 14:18:00,
2013-03-21 10:23:00,46.0,31.2,29.75,NW,310,14.0,20.0,56,0.00,,---,0.00,VWS V14.00,2013-03-21 14:23:00,
2013-03-21 10:28:00,46.1,31.7,29.76,NW,325,9.0,11.0,57,0.00,,---,0.00,VWS V14.00,2013-03-21 14:28:00,
2013-03-21 10:33:00,46.2,31.4,29.76,NW,317,14.0,17.0,56,0.00,,---,0.00,VWS V14.00,2013-03-21 14:33:00,
2013-03-21 10:38:00,46.6,31.8,29.75,WNW,291,18.0,19.0,56,0.00,,---,0.00,VWS V14.00,2013-03-21 14:38:00,
2013-03-21 10:43:00,46.6,31.3,29.75,NNW,335,11.0,19.0,55,0.00,,---,0.00,VWS V14.00,2013-03-21 14:43:00,
2013-03-21 10:48:00,46.8,32.0,29.75,WNW,301,10.0,19.0,56,0.00,,---,0.00,VWS V14.00,2013-03-21 14:48:00,
2013-03-21 10:53:00,46.9,31.1,29.75,NW,316,8.0,19.0,54,0.00,,---,0.00,VWS V14.00,2013-03-21 14:53:00,
2013-03-21 10:58:00,47.2,31.9,29.75,NW,321,8.0,10.0,55,0.00,,---,0.00,VWS V14.00,2013-03-21 14:58:00,
2013-03-21 11:03:00,47.2,32.3,29.76,WNW,287,11.0,20.0,56,0.00,,---,0.00,VWS V14.00,2013-03-21 15:03:00,
2013-03-21 11:08:00,47.3,32.0,29.75,West,281,10.0,20.0,55,0.00,,---,0.00,VWS V14.00,2013-03-21 15:08:00,
2013-03-21 11:13:00,47.5,30.8,29.76,NW,318,6.0,20.0,52,0.00,,---,0.00,VWS V14.00,2013-03-21 15:13:00,
2013-03-21 11:18:00,47.8,31.0,29.75,NNW,335,7.0,20.0,52,0.00,,---,0.00,VWS V14.00,2013-03-21 15:18:00,
2013-03-21 11:23:00,48.0,31.2,29.75,NW,305,11.0,20.0,52,0.00,,---,0.00,VWS V14.00,2013-03-21 15:23:00,
2013-03-21 11:28:00,48.0,30.3,29.75,NW,316,9.0,12.0,50,0.00,,---,0.00,VWS V14.00,2013-03-21 15:28:00,
2013-03-21 11:33:00,48.1,30.8,29.75,North,358,9.0,18.0,51,0.00,,---,0.00,VWS V14.00,2013-03-21 15:33:00,
2013-03-21 11:38:00,47.8,30.1,29.75,NW,318,12.0,18.0,50,0.00,,---,0.00,VWS V14.00,2013-03-21 15:38:00,
2013-03-21 11:43:00,48.1,30.4,29.75,West,281,13.0,26.0,50,0.00,,---,0.00,VWS V14.00,2013-03-21 15:43:00,
2013-03-21 11:48:00,48.2,30.0,29.75,West,273,16.0,26.0,49,0.00,,---,0.00,VWS V14.00,2013-03-21 15:48:00,
2013-03-21 11:53:00,48.3,30.0,29.75,WNW,293,13.0,26.0,49,0.00,,---,0.00,VWS V14.00,2013-03-21 15:53:00,
2013-03-21 11:58:00,48.2,29.5,29.75,WNW,303,16.0,16.0,48,0.00,,---,0.00,VWS V14.00,2013-03-21 15:58:00,
2013-03-21 12:03:00,48.3,29.5,29.75,NW,305,6.0,16.0,48,0.00,,---,0.00,VWS V14.00,2013-03-21 16:03:00,
2013-03-21 12:08:00,49.0,31.2,29.75,WNW,295,9.0,18.0,50,0.00,,---,0.00,VWS V14.00,2013-03-21 16:08:00,
2013-03-21 12:13:00,49.3,31.0,29.75,WNW,290,11.0,18.0,49,0.00,,---,0.00,VWS V14.00,2013-03-21 16:13:00,
2013-03-21 12:18:00,49.0,30.2,29.75,WNW,301,22.0,22.0,48,0.00,,---,0.00,VWS V14.00,2013-03-21 16:18:00,
2013-03-21 12:23:00,49.2,30.4,29.75,WNW,287,14.0,23.0,48,0.00,,---,0.00,VWS V14.00,2013-03-21 16:23:00,
2013-03-21 12:28:00,49.3,29.9,29.75,WNW,289,15.0,22.0,47,0.00,,---,0.00,VWS V14.00,2013-03-21 16:28:00,
2013-03-21 12:33:00,48.5,28.1,29.76,WNW,285,11.0,22.0,45,0.00,,---,0.00,VWS V14.00,2013-03-21 16:33:00,
2013-03-21 12:38:00,47.9,28.1,29.76,NNW,341,11.0,22.0,46,0.00,,---,0.00,VWS V14.00,2013-03-21 16:38:00,
2013-03-21 12:43:00,47.6,27.9,29.76,NNW,335,9.0,22.0,46,0.00,,---,0.00,VWS V14.00,2013-03-21 16:43:00,
2013-03-21 12:48:00,48.3,27.4,29.76,WNW,283,16.0,24.0,44,0.00,,---,0.00,VWS V14.00,2013-03-21 16:48:00,
2013-03-21 12:53:00,49.4,27.9,29.76,NW,308,9.0,24.0,43,0.00,,---,0.00,VWS V14.00,2013-03-21 16:53:00,
2013-03-21 12:58:00,48.5,27.6,29.76,WNW,286,15.0,16.0,44,0.00,,---,0.00,VWS V14.00,2013-03-21 16:58:00,
2013-03-21 13:03:00,47.7,26.9,29.76,NW,308,8.0,17.0,44,0.00,,---,0.00,VWS V14.00,2013-03-21 17:03:00,
2013-03-21 13:08:00,47.5,27.2,29.76,NW,304,14.0,17.0,45,0.00,,---,0.00,VWS V14.00,2013-03-21 17:08:00,
2013-03-21 13:13:00,48.7,28.3,29.76,WNW,291,15.0,20.0,45,0.00,,---,0.00,VWS V14.00,2013-03-21 17:13:00,
2013-03-21 13:18:00,48.4,26.4,29.76,West,263,16.0,23.0,42,0.00,,---,0.00,VWS V14.00,2013-03-21 17:18:00,
2013-03-21 13:23:00,50.1,26.1,29.76,NW,325,12.0,23.0,39,0.00,,---,0.00,VWS V14.00,2013-03-21 17:23:00,
2013-03-21 13:28:00,49.7,25.1,29.76,NW,308,13.0,16.0,38,0.00,,---,0.00,VWS V14.00,2013-03-21 17:28:00,
2013-03-21 13:33:00,50.0,24.8,29.76,West,267,14.0,18.0,37,0.00,,---,0.00,VWS V14.00,2013-03-21 17:33:00,
2013-03-21 13:38:00,49.8,25.2,29.75,West,263,21.0,22.0,38,0.00,,---,0.00,VWS V14.00,2013-03-21 17:38:00,
2013-03-21 13:43:00,50.1,24.9,29.75,West,281,16.0,22.0,37,0.00,,---,0.00,VWS V14.00,2013-03-21 17:43:00,
2013-03-21 13:48:00,51.4,28.5,29.75,NW,310,10.0,22.0,41,0.00,,---,0.00,VWS V14.00,2013-03-21 17:48:00,
2013-03-21 13:53:00,50.9,26.2,29.75,WNW,294,15.0,22.0,38,0.00,,---,0.00,VWS V14.00,2013-03-21 17:53:00,
2013-03-21 13:58:00,50.9,24.9,29.75,NW,306,8.0,12.0,36,0.00,,---,0.00,VWS V14.00,2013-03-21 17:58:00,
2013-03-21 14:03:00,51.0,25.0,29.75,WNW,293,6.0,16.0,36,0.00,,---,0.00,VWS V14.00,2013-03-21 18:03:00,
2013-03-21 14:08:00,50.8,24.1,29.74,WNW,291,18.0,28.0,35,0.00,,---,0.00,VWS V14.00,2013-03-21 18:08:00,
2013-03-21 14:13:00,50.1,22.8,29.74,West,269,8.0,28.0,34,0.00,,---,0.00,VWS V14.00,2013-03-21 18:13:00,
2013-03-21 14:18:00,50.5,21.8,29.74,West,276,18.0,28.0,32,0.00,,---,0.00,VWS V14.00,2013-03-21 18:18:00,
2013-03-21 14:23:00,50.2,22.2,29.74,NW,313,11.0,28.0,33,0.00,,---,0.00,VWS V14.00,2013-03-21 18:23:00,
2013-03-21 14:28:00,50.0,22.8,29.74,WSW,257,10.0,14.0,34,0.00,,---,0.00,VWS V14.00,2013-03-21 18:28:00,
2013-03-21 14:33:00,50.7,21.9,29.74,NW,320,14.0,23.0,32,0.00,,---,0.00,VWS V14.00,2013-03-21 18:33:00,
2013-03-21 14:38:00,50.8,23.5,29.74,NNW,335,13.0,23.0,34,0.00,,---,0.00,VWS V14.00,2013-03-21 18:38:00,
2013-03-21 14:43:00,50.5,21.8,29.74,West,277,13.0,23.0,32,0.00,,---,0.00,VWS V14.00,2013-03-21 18:43:00,
2013-03-21 14:48:00,50.4,23.8,29.74,West,266,17.0,23.0,35,0.00,,---,0.00,VWS V14.00,2013-03-21 18:48:00,
2013-03-21 14:53:00,50.6,22.6,29.74,WNW,301,16.0,23.0,33,0.00,,---,0.00,VWS V14.00,2013-03-21 18:53:00,
2013-03-21 14:58:00,50.6,23.3,29.74,West,259,15.0,15.0,34,0.00,,---,0.00,VWS V14.00,2013-03-21 18:58:00,
2013-03-21 15:03:00,50.9,24.2,29.74,WNW,291,12.0,19.0,35,0.00,,---,0.00,VWS V14.00,2013-03-21 19:03:00,
2013-03-21 15:08:00,51.0,23.6,29.73,NW,309,10.0,19.0,34,0.00,,---,0.00,VWS V14.00,2013-03-21 19:08:00,
2013-03-21 15:13:00,50.9,23.5,29.74,West,264,10.0,19.0,34,0.00,,---,0.00,VWS V14.00,2013-03-21 19:13:00,
2013-03-21 15:18:00,50.6,23.3,29.73,NW,325,5.0,19.0,34,0.00,,---,0.00,VWS V14.00,2013-03-21 19:18:00,
2013-03-21 15:23:00,51.1,22.3,29.74,WNW,289,19.0,22.0,32,0.00,,---,0.00,VWS V14.00,2013-03-21 19:23:00,
2013-03-21 15:28:00,51.2,20.9,29.74,NW,308,12.0,24.0,30,0.00,,---,0.00,VWS V14.00,2013-03-21 19:28:00,
2013-03-21 15:33:00,50.3,19.3,29.74,WSW,251,11.0,24.0,29,0.00,,---,0.00,VWS V14.00,2013-03-21 19:33:00,
2013-03-21 15:38:00,50.7,21.9,29.74,West,279,14.0,24.0,32,0.00,,---,0.00,VWS V14.00,2013-03-21 19:38:00,
2013-03-21 15:43:00,51.2,20.0,29.74,WNW,297,11.0,24.0,29,0.00,,---,0.00,VWS V14.00,2013-03-21 19:43:00,
2013-03-21 15:48:00,51.3,20.9,29.74,WNW,291,10.0,24.0,30,0.00,,---,0.00,VWS V14.00,2013-03-21 19:48:00,
2013-03-21 15:53:00,51.2,20.9,29.74,NNW,330,15.0,24.0,30,0.00,,---,0.00,VWS V14.00,2013-03-21 19:53:00,
2013-03-21 15:58:00,51.6,21.2,29.74,WNW,285,10.0,15.0,30,0.00,,---,0.00,VWS V14.00,2013-03-21 19:58:00,
2013-03-21 16:03:00,51.6,18.7,29.74,NNW,345,12.0,21.0,27,0.00,,---,0.00,VWS V14.00,2013-03-21 20:03:00,
2013-03-21 16:08:00,51.2,19.2,29.74,NW,315,14.0,21.0,28,0.00,,---,0.00,VWS V14.00,2013-03-21 20:08:00,
2013-03-21 16:13:00,51.6,19.6,29.74,WNW,295,9.0,21.0,28,0.00,,---,0.00,VWS V14.00,2013-03-21 20:13:00,
2013-03-21 16:18:00,52.0,19.9,29.74,NW,321,11.0,21.0,28,0.00,,---,0.00,VWS V14.00,2013-03-21 20:18:00,
2013-03-21 16:23:00,51.7,20.5,29.74,NW,314,10.0,21.0,29,0.00,,---,0.00,VWS V14.00,2013-03-21 20:23:00,
2013-03-21 16:28:00,51.5,20.3,29.74,West,264,12.0,14.0,29,0.00,,---,0.00,VWS V14.00,2013-03-21 20:28:00,
2013-03-21 16:33:00,51.3,19.3,29.74,West,281,17.0,18.0,28,0.00,,---,0.00,VWS V14.00,2013-03-21 20:33:00,
2013-03-21 16:38:00,51.2,18.4,29.75,West,272,20.0,20.0,27,0.00,,---,0.00,VWS V14.00,2013-03-21 20:38:00,
2013-03-21 16:43:00,50.9,17.2,29.75,West,264,19.0,21.0,26,0.00,,---,0.00,VWS V14.00,2013-03-21 20:43:00,
2013-03-21 16:48:00,51.0,18.2,29.74,WNW,289,9.0,21.0,27,0.00,,---,0.00,VWS V14.00,2013-03-21 20:48:00,
2013-03-21 16:53:00,51.4,18.6,29.75,WNW,297,16.0,21.0,27,0.00,,---,0.00,VWS V14.00,2013-03-21 20:53:00,
2013-03-21 16:58:00,51.1,18.3,29.75,WNW,299,15.0,15.0,27,0.00,,---,0.00,VWS V14.00,2013-03-21 20:58:00,
2013-03-21 17:03:00,50.9,18.1,29.75,NNW,335,7.0,17.0,27,0.00,,---,0.00,VWS V14.00,2013-03-21 21:03:00,
2013-03-21 17:08:00,51.1,19.1,29.75,West,276,13.0,17.0,28,0.00,,---,0.00,VWS V14.00,2013-03-21 21:08:00,
2013-03-21 17:13:00,51.2,18.4,29.76,NW,325,8.0,21.0,27,0.00,,---,0.00,VWS V14.00,2013-03-21 21:13:00,
2013-03-21 17:18:00,51.0,18.2,29.76,West,267,13.0,21.0,27,0.00,,---,0.00,VWS V14.00,2013-03-21 21:18:00,
2013-03-21 17:23:00,50.9,19.8,29.76,WSW,245,15.0,21.0,29,0.00,,---,0.00,VWS V14.00,2013-03-21 21:23:00,
2013-03-21 17:28:00,51.4,20.2,29.76,West,272,7.0,10.0,29,0.00,,---,0.00,VWS V14.00,2013-03-21 21:28:00,
2013-03-21 17:33:00,51.0,18.2,29.76,West,280,9.0,13.0,27,0.00,,---,0.00,VWS V14.00,2013-03-21 21:33:00,
2013-03-21 17:38:00,51.1,18.3,29.76,NW,312,17.0,17.0,27,0.00,,---,0.00,VWS V14.00,2013-03-21 21:38:00,
2013-03-21 17:43:00,50.6,18.7,29.76,NW,314,6.0,18.0,28,0.00,,---,0.00,VWS V14.00,2013-03-21 21:43:00,
2013-03-21 17:48:00,50.5,18.6,29.77,WNW,291,11.0,18.0,28,0.00,,---,0.00,VWS V14.00,2013-03-21 21:48:00,
2013-03-21 17:53:00,50.6,19.5,29.77,West,281,16.0,20.0,29,0.00,,---,0.00,VWS V14.00,2013-03-21 21:53:00,
2013-03-21 17:58:00,50.4,18.5,29.77,NW,325,9.0,19.0,28,0.00,,---,0.00,VWS V14.00,2013-03-21 21:58:00,
2013-03-21 18:03:00,50.3,17.6,29.77,NW,306,8.0,20.0,27,0.00,,---,0.00,VWS V14.00,2013-03-21 22:03:00,
2013-03-21 18:08:00,50.5,16.9,29.78,WNW,285,18.0,21.0,26,0.00,,---,0.00,VWS V14.00,2013-03-21 22:08:00,
2013-03-21 18:13:00,50.1,16.6,29.78,NW,304,12.0,21.0,26,0.00,,---,0.00,VWS V14.00,2013-03-21 22:13:00,
2013-03-21 18:18:00,50.0,17.4,29.78,West,269,17.0,21.0,27,0.00,,---,0.00,VWS V14.00,2013-03-21 22:18:00,
2013-03-21 18:23:00,49.9,17.3,29.78,West,266,12.0,21.0,27,0.00,,---,0.00,VWS V14.00,2013-03-21 22:23:00,
2013-03-21 18:28:00,49.7,17.9,29.79,West,281,11.0,15.0,28,0.00,,---,0.00,VWS V14.00,2013-03-21 22:28:00,
2013-03-21 18:33:00,49.6,19.5,29.79,West,266,12.0,17.0,30,0.00,,---,0.00,VWS V14.00,2013-03-21 22:33:00,
2013-03-21 18:39:00,49.3,16.8,29.79,West,270,14.0,19.0,27,0.00,,---,0.00,VWS V14.00,2013-03-21 22:39:00,
2013-03-21 18:44:00,49.1,17.4,29.80,WNW,287,14.0,19.0,28,0.00,,---,0.00,VWS V14.00,2013-03-21 22:44:00,
2013-03-21 18:49:00,48.8,17.2,29.80,WNW,288,9.0,19.0,28,0.00,,---,0.00,VWS V14.00,2013-03-21 22:49:00,
2013-03-21 18:54:00,48.6,17.0,29.80,NW,312,5.0,21.0,28,0.00,,---,0.00,VWS V14.00,2013-03-21 22:54:00,
2013-03-21 18:59:00,48.5,18.5,29.81,NW,312,6.0,8.0,30,0.00,,---,0.00,VWS V14.00,2013-03-21 22:59:00,
2013-03-21 19:04:00,48.1,18.9,29.81,WNW,299,7.0,11.0,31,0.00,,---,0.00,VWS V14.00,2013-03-21 23:04:00,
2013-03-21 19:09:00,47.6,17.7,29.82,NW,325,10.0,15.0,30,0.00,,---,0.00,VWS V14.00,2013-03-21 23:09:00,
2013-03-21 19:14:00,47.1,18.0,29.82,NW,321,7.0,15.0,31,0.00,,---,0.00,VWS V14.00,2013-03-21 23:14:00,
2013-03-21 19:19:00,46.5,18.2,29.82,NW,320,5.0,15.0,32,0.00,,---,0.00,VWS V14.00,2013-03-21 23:19:00,
2013-03-21 19:24:00,46.1,17.9,29.83,NW,312,6.0,15.0,32,0.00,,---,0.00,VWS V14.00,2013-03-21 23:24:00,
2013-03-21 19:29:00,45.7,18.3,29.83,NW,311,4.0,7.0,33,0.00,,---,0.00,VWS V14.00,2013-03-21 23:29:00,
2013-03-21 19:34:00,45.2,19.2,29.83,NW,314,4.0,7.0,35,0.00,,---,0.00,VWS V14.00,2013-03-21 23:34:00,
2013-03-21 19:39:00,44.8,18.2,29.83,NW,318,5.0,9.0,34,0.00,,---,0.00,VWS V14.00,2013-03-21 23:39:00,
2013-03-21 19:44:00,44.7,18.8,29.83,NW,318,5.0,9.0,35,0.00,,---,0.00,VWS V14.00,2013-03-21 23:44:00,
2013-03-21 19:49:00,44.3,18.4,29.84,NW,319,5.0,9.0,35,0.00,,---,0.00,VWS V14.00,2013-03-21 23:49:00,
2013-03-21 19:54:00,44.2,19.0,29.84,NNW,330,4.0,9.0,36,0.00,,---,0.00,VWS V14.00,2013-03-21 23:54:00,
2013-03-21 19:59:00,43.9,18.7,29.84,NW,320,3.0,4.0,36,0.00,,---,0.00,VWS V14.00,2013-03-21 23:59:00,
2013-03-21 20:04:00,43.5,19.0,29.85,NW,325,3.0,6.0,37,0.00,,---,0.00,VWS V14.00,2013-03-22 00:04:00,
2013-03-21 20:09:00,43.2,19.3,29.85,NW,325,3.0,6.0,38,0.00,,---,0.00,VWS V14.00,2013-03-22 00:09:00,
2013-03-21 20:14:00,42.9,19.1,29.85,NW,318,3.0,6.0,38,0.00,,---,0.00,VWS V14.00,2013-03-22 00:14:00,
2013-03-21 20:19:00,42.6,19.4,29.86,NW,316,4.0,6.0,39,0.00,,---,0.00,VWS V14.00,2013-03-22 00:19:00,
2013-03-21 20:24:00,42.3,19.1,29.86,NW,319,4.0,6.0,39,0.00,,---,0.00,VWS V14.00,2013-03-22 00:24:00,
2013-03-21 20:29:00,42.1,19.5,29.86,NNW,335,2.0,3.0,40,0.00,,---,0.00,VWS V14.00,2013-03-22 00:29:00,
2013-03-21 20:34:00,42.2,19.0,29.87,NNW,335,5.0,7.0,39,0.00,,---,0.00,VWS V14.00,2013-03-22 00:34:00,
2013-03-21 20:39:00,42.0,19.5,29.87,NNW,347,2.0,7.0,40,0.00,,---,0.00,VWS V14.00,2013-03-22 00:39:00,
2013-03-21 20:44:00,41.8,19.3,29.87,NNW,335,3.0,7.0,40,0.00,,---,0.00,VWS V14.00,2013-03-22 00:44:00,
2013-03-21 20:49:00,41.4,19.5,29.87,NNW,339,4.0,7.0,41,0.00,,---,0.00,VWS V14.00,2013-03-22 00:49:00,
2013-03-21 20:54:00,41.0,19.1,29.88,NNW,345,2.0,7.0,41,0.00,,---,0.00,VWS V14.00,2013-03-22 00:54:00,
2013-03-21 20:59:00,40.7,19.4,29.88,NNW,335,3.0,6.0,42,0.00,,---,0.00,VWS V14.00,2013-03-22 00:59:00,
2013-03-21 21:04:00,40.7,18.9,29.88,NW,315,6.0,7.0,41,0.00,,---,0.00,VWS V14.00,2013-03-22 01:04:00,
2013-03-21 21:09:00,40.7,18.9,29.88,NNW,345,5.0,8.0,41,0.00,,---,0.00,VWS V14.00,2013-03-22 01:09:00,
2013-03-21 21:14:00,40.6,18.8,29.89,NNW,335,3.0,8.0,41,0.00,,---,0.00,VWS V14.00,2013-03-22 01:14:00,
2013-03-21 21:19:00,40.4,18.6,29.89,NNW,347,2.0,8.0,41,0.00,,---,0.00,VWS V14.00,2013-03-22 01:19:00,
2013-03-21 21:24:00,40.2,19.0,29.89,NNW,342,3.0,8.0,42,0.00,,---,0.00,VWS V14.00,2013-03-22 01:24:00,
2013-03-21 21:29:00,40.0,18.8,29.90,NNW,335,2.0,4.0,42,0.00,,---,0.00,VWS V14.00,2013-03-22 01:29:00,
2013-03-21 21:34:00,39.7,19.0,29.90,NW,320,3.0,6.0,43,0.00,,---,0.00,VWS V14.00,2013-03-22 01:34:00,
2013-03-21 21:39:00,39.6,19.0,29.91,NNW,335,4.0,6.0,43,0.00,,---,0.00,VWS V14.00,2013-03-22 01:39:00,
2013-03-21 21:44:00,39.5,18.9,29.91,NNW,346,4.0,7.0,43,0.00,,---,0.00,VWS V14.00,2013-03-22 01:44:00,
2013-03-21 21:49:00,39.5,18.9,29.91,NNW,335,7.0,9.0,43,0.00,,---,0.00,VWS V14.00,2013-03-22 01:49:00,
2013-03-21 21:54:00,39.4,18.8,29.91,NNW,345,6.0,9.0,43,0.00,,---,0.00,VWS V14.00,2013-03-22 01:54:00,
2013-03-21 21:59:00,39.4,18.8,29.91,NNW,345,5.0,7.0,43,0.00,,---,0.00,VWS V14.00,2013-03-22 01:59:00,
2013-03-21 22:04:00,39.1,19.0,29.92,NNW,348,5.0,8.0,44,0.00,,---,0.00,VWS V14.00,2013-03-22 02:04:00,
2013-03-21 22:09:00,38.8,18.8,29.92,North,354,5.0,8.0,44,0.00,,---,0.00,VWS V14.00,2013-03-22 02:09:00,
2013-03-21 22:14:00,38.5,19.0,29.92,North,349,3.0,10.0,45,0.00,,---,0.00,VWS V14.00,2013-03-22 02:14:00,
2013-03-21 22:19:00,38.2,19.3,29.92,North,349,4.0,10.0,46,0.00,,---,0.00,VWS V14.00,2013-03-22 02:19:00,
2013-03-21 22:24:00,37.9,19.0,29.93,North,358,4.0,10.0,46,0.00,,---,0.00,VWS V14.00,2013-03-22 02:24:00,
2013-03-21 22:29:00,37.7,19.3,29.93,North,358,1.0,3.0,47,0.00,,---,0.00,VWS V14.00,2013-03-22 02:29:00,
2013-03-21 22:34:00,37.3,19.4,29.93,North,358,1.0,4.0,48,0.00,,---,0.00,VWS V14.00,2013-03-22 02:34:00,
2013-03-21 22:39:00,37.0,19.6,29.93,North,358,2.0,4.0,49,0.00,,---,0.00,VWS V14.00,2013-03-22 02:39:00,
2013-03-21 22:44:00,36.9,19.5,29.94,North,350,3.0,5.0,49,0.00,,---,0.00,VWS V14.00,2013-03-22 02:44:00,
2013-03-21 22:49:00,36.9,19.1,29.94,North,356,4.0,7.0,48,0.00,,---,0.00,VWS V14.00,2013-03-22 02:49:00,
2013-03-21 22:54:00,37.0,19.1,29.94,North,8,5.0,7.0,48,0.00,,---,0.00,VWS V14.00,2013-03-22 02:54:00,
2013-03-21 22:59:00,37.0,19.1,29.94,North,357,4.0,5.0,48,0.00,,---,0.00,VWS V14.00,2013-03-22 02:59:00,
2013-03-21 23:04:00,36.6,18.8,29.94,North,2,3.0,6.0,48,0.00,,---,0.00,VWS V14.00,2013-03-22 03:04:00,
2013-03-21 23:09:00,36.4,19.1,29.94,North,2,2.0,6.0,49,0.00,,---,0.00,VWS V14.00,2013-03-22 03:09:00,
2013-03-21 23:14:00,36.1,18.8,29.95,North,2,2.0,6.0,49,0.00,,---,0.00,VWS V14.00,2013-03-22 03:14:00,
2013-03-21 23:19:00,35.8,19.0,29.95,North,10,5.0,6.0,50,0.00,,---,0.00,VWS V14.00,2013-03-22 03:19:00,
2013-03-21 23:24:00,35.5,19.6,29.95,North,8,1.0,6.0,52,0.00,,---,0.00,VWS V14.00,2013-03-22 03:24:00,
2013-03-21 23:29:00,35.2,19.4,29.95,North,6,5.0,5.0,52,0.00,,---,0.00,VWS V14.00,2013-03-22 03:29:00,
2013-03-21 23:34:00,35.0,19.2,29.95,North,358,2.0,5.0,52,0.00,,---,0.00,VWS V14.00,2013-03-22 03:34:00,
2013-03-21 23:39:00,34.9,19.1,29.96,North,1,2.0,5.0,52,0.00,,---,0.00,VWS V14.00,2013-03-22 03:39:00,
2013-03-21 23:44:00,34.9,19.1,29.96,North,2,4.0,5.0,52,0.00,,---,0.00,VWS V14.00,2013-03-22 03:44:00,
2013-03-21 23:49:00,34.8,19.0,29.96,North,2,2.0,5.0,52,0.00,,---,0.00,VWS V14.00,2013-03-22 03:49:00,
2013-03-21 23:54:00,34.7,18.9,29.96,North,357,6.0,6.0,52,0.00,,---,0.00,VWS V14.00,2013-03-22 03:54:00,
2013-03-21 23:59:00,34.7,18.4,29.96,NNW,348,5.0,6.0,51,0.00,,---,0.00,VWS V14.00,2013-03-22 03:59:00,